Regional Weather Roundup
Issued by NWS

Home | Current Version | Previous Version | Graphics & Text | Print | Product List | Glossary On
Versions: 1 2 3 4 5 6 7 8 9 10 11 12 13 14 15 16 17 18 19 20 21 22 23 24 25 26 27 28 29 30 31 32 33 34 35 36 37 38 39 40 41 42 43 44 45 46 47 48 49 50
000
ASUS43 KBIS 281810
RWRND

NORTH DAKOTA REGIONAL WEATHER ROUNDUP
NATIONAL WEATHER SERVICE BISMARCK ND
1200 PM CST SAT FEB 28 2015

NOTE: "FAIR" INDICATES FEW OR NO CLOUDS BELOW 12,000 FEET WITH NO
SIGNIFICANT WEATHER AND/OR OBSTRUCTIONS TO VISIBILITY.


NDZ001>003-009>011-017-281900-
NORTHWEST NORTH DAKOTA

CITY           SKY/WX    TMP DP  RH WIND       PRES   REMARKS
WILLISTON      CLOUDY    12   2  64 NW18      30.18S WCI  -6
6HR MIN TEMP:  -2; 6HR MAX TEMP:  12; 6HR PCP: TRACE;

MINOT          SUNNY      9  -1  64 W17       30.12S WCI  -9
MINOT AFB      SUNNY      6  -1  74 NW16      30.13R WCI -12
$$

NDZ018>021-031>035-040>046-281900-
SOUTHWEST NORTH DAKOTA

CITY           SKY/WX    TMP DP  RH WIND       PRES   REMARKS
BISMARCK       MOSUNNY   21   9  59 NW18      30.14R WCI   6
6HR MIN TEMP:   2; 6HR MAX TEMP:  22;

DICKINSON      MOSUNNY   15   1  53 NW23      30.10S WCI  -3
GARRISON         N/A     11   2  67 NW22      30.13R WCI  -8
6HR MIN TEMP:   9; 6HR MAX TEMP:  12;

HETTINGER ARPT SUNNY     17   0  47 NW22G29   30.12R WCI   0
$$

NDZ004>008-012>016-024-026-027-054-281900-
NORTHEAST NORTH DAKOTA

CITY           SKY/WX    TMP DP  RH WIND       PRES   REMARKS
GRAND FORKS    MOSUNNY   16   8  71 S16       30.18F WCI   1
GRND FRKS AFB  MOSUNNY   20   8  59 S17       30.15F WCI   6
DEVILS LAKE    MOSUNNY   18   9  68 SW9       30.08S WCI   6
$$

NDZ022-023-025-028>030-036>039-047>053-281900-
SOUTHEAST NORTH DAKOTA

CITY           SKY/WX    TMP DP  RH WIND       PRES   REMARKS
FARGO          PTSUNNY   23  10  57 S16       30.21F WCI  10
6HR MIN TEMP:   6; 6HR MAX TEMP:  23;

JAMESTOWN      PTSUNNY   21  10  62 SW16      30.10F WCI   7
$$



USA.gov is the U.S. government's official web portal to all federal, state and local government web resources and services.